Powrót do katalogu

FLOCK 4G 9

AktywnyNaukaSSO
NORAD 62622·PAYLOAD·🇺🇸 United States

Wystrzelony Jan 14, 2025 z Vandenberg Space Force Base

Loading…

Następne Przeloty (najbliższe 24 godziny)

TLE

ŚwieżeSource: CelesTrak SupGP

Epoka: Sep 14, 2026, 06:45 UTC

1 62622C 25009P   26257.28131944  .00011813  00000+0  41527-3 0  2570
2 62622  97.3907 337.6334 0004753  28.8111 274.2143 15.29408057    19

Śledź FLOCK 4G 9 w czasie rzeczywistym z AllMySat

Download on the App Store